sat.trackr.live / text

‹ back to catalog

STARLINK-5592

NORAD 55741 · 2023-028A

PAYLOAD ACTIVE UNKNOWN

§ Identity

Operator
Country
US
Launch date
2023-03-03
Launch site
AFWTR
Launch vehicle
Mass (kg)
RCS (m²)

Purposes: comms

External: N2YO · Heavens-Above · Gunter

§ Orbital elements

Epoch: 2026-09-20T22:00:03.000096Z

Period
95.59 min
Inclination
70.0008°
Eccentricity
0.0005274
Mean motion
15.06461710 rev/d
Perigee alt
543.4 km
Apogee alt
550.7 km
Semi-major
6,925.2 km
B*
4.5680e-3
RAAN
112.2532°
Arg perigee
296.5865°
Mean anomaly
31.2141°
Rev number
571

§ Raw data

STARLINK-55921 55741U 23028A   26263.91670139  .00068118  00000+0  45680-2 0  99902 55741  70.0008 112.2532 0005274 296.5865  31.2141 15.06461710  5710

JSON: /api/v1/satellites/55741 · /tle

For live sub-satellite position, see the globe view (requires WebGL).

§ Visibility from observer

Set your observer location to see the next 7 days of passes ≥ 10°. The values pass through the URL so the page stays shareable.

No JS? Fill the form by hand. The geolocation button needs JavaScript.